Location: Bogis-Bossey
(46.3500°N, 6.1667°E)
Time: 18:06:51
(UTC+00:00)

Cosmos 923 Rocket - Pass Details

Date: 17 August 2022
Orbit: 758 x 784 km, 74.0° (Epoch: 30 September)

Event Time Altitude Azimuth Distance (km) Brightness Sun altitude
Exits shadow 20:23:29 10° 182° (S) 2,314 6.1 -16.0°
Maximum altitude 20:28:36 54° 106° (ESE) 939 4.1 -16.7°
Drops below altitude 10° 20:33:43 10° 30° (NNE) 2,324 6.6 -17.3°
Sets 20:36:08 0° 26° (NNE) 3,251 7.5 -17.6°
